Year,Month,Day,Hour,Minute,Value (Times are PST for temperature in C)
2022,11,28,00,00,4.80
2022,11,28,00,01,4.80
2022,11,28,00,02,4.70
2022,11,28,00,03,4.70
2022,11,28,00,04,4.70
2022,11,28,00,05,4.70
2022,11,28,00,06,4.70
2022,11,28,00,07,4.70
2022,11,28,00,08,4.70
2022,11,28,00,09,4.70
2022,11,28,00,10,4.70
2022,11,28,00,11,4.60
2022,11,28,00,12,4.60
2022,11,28,00,13,4.60
2022,11,28,00,14,4.60
2022,11,28,00,15,4.60
2022,11,28,00,16,4.60
2022,11,28,00,17,4.60
2022,11,28,00,18,4.60
2022,11,28,00,19,4.60
2022,11,28,00,20,4.50
2022,11,28,00,21,4.50
2022,11,28,00,22,4.50
2022,11,28,00,23,4.50
2022,11,28,00,24,4.40
2022,11,28,00,25,4.40
2022,11,28,00,26,4.40
2022,11,28,00,27,4.40
2022,11,28,00,28,4.40
2022,11,28,00,29,4.40
2022,11,28,00,30,4.40
2022,11,28,00,31,4.40
2022,11,28,00,32,4.40
2022,11,28,00,33,4.40
2022,11,28,00,34,4.40
2022,11,28,00,35,4.30
2022,11,28,00,36,4.30
2022,11,28,00,37,4.30
2022,11,28,00,38,4.30
2022,11,28,00,39,4.30
2022,11,28,00,40,4.30
2022,11,28,00,41,4.30
2022,11,28,00,42,4.30
2022,11,28,00,43,4.30
2022,11,28,00,44,4.30
2022,11,28,00,45,4.30
2022,11,28,00,46,4.20
2022,11,28,00,47,4.20
2022,11,28,00,48,4.20
2022,11,28,00,49,4.20
2022,11,28,00,50,4.20
2022,11,28,00,51,4.20
2022,11,28,00,52,4.20
2022,11,28,00,53,4.20
2022,11,28,00,54,4.10
2022,11,28,00,55,4.10
2022,11,28,00,56,4.10
2022,11,28,00,57,4.10
2022,11,28,00,58,4.10
2022,11,28,00,59,4.10
2022,11,28,01,00,4.10
2022,11,28,01,01,4.10
2022,11,28,01,02,4.10
2022,11,28,01,03,4.00
2022,11,28,01,04,4.00
2022,11,28,01,05,4.00
2022,11,28,01,06,4.00
2022,11,28,01,07,3.90
2022,11,28,01,08,3.90
2022,11,28,01,09,3.90
2022,11,28,01,10,3.90
2022,11,28,01,11,3.90
2022,11,28,01,12,3.90
2022,11,28,01,13,3.90
2022,11,28,01,14,3.80
2022,11,28,01,15,3.80
2022,11,28,01,16,3.80
2022,11,28,01,17,3.80
2022,11,28,01,18,3.80
2022,11,28,01,19,3.80
2022,11,28,01,20,3.80
2022,11,28,01,21,3.80
2022,11,28,01,22,3.80
2022,11,28,01,23,3.80
2022,11,28,01,24,3.80
2022,11,28,01,25,3.80
2022,11,28,01,26,3.70
2022,11,28,01,27,3.70
2022,11,28,01,28,3.70
2022,11,28,01,29,3.70
2022,11,28,01,30,3.70
2022,11,28,01,31,3.70
2022,11,28,01,32,3.70
2022,11,28,01,33,3.70
2022,11,28,01,34,3.70
2022,11,28,01,35,3.70
2022,11,28,01,36,3.70
2022,11,28,01,37,3.70
2022,11,28,01,38,3.70
2022,11,28,01,39,3.60
2022,11,28,01,40,3.60
2022,11,28,01,41,3.60
2022,11,28,01,42,3.60
2022,11,28,01,43,3.60
2022,11,28,01,44,3.60
2022,11,28,01,45,3.60
2022,11,28,01,46,3.60
2022,11,28,01,47,3.60
2022,11,28,01,48,3.60
2022,11,28,01,49,3.60
2022,11,28,01,50,3.60
2022,11,28,01,51,3.60
2022,11,28,01,52,3.60
2022,11,28,01,53,3.60
2022,11,28,01,54,3.60
2022,11,28,01,55,3.60
2022,11,28,01,56,3.60
2022,11,28,01,57,3.60
2022,11,28,01,58,3.60
2022,11,28,01,59,3.60
2022,11,28,02,00,3.60
2022,11,28,02,01,3.60
2022,11,28,02,02,3.60
2022,11,28,02,03,3.60
2022,11,28,02,04,3.60
2022,11,28,02,05,3.60
2022,11,28,02,06,3.60
2022,11,28,02,07,3.60
2022,11,28,02,08,3.60
2022,11,28,02,09,3.60
2022,11,28,02,10,3.60
2022,11,28,02,11,3.60
2022,11,28,02,12,3.60
2022,11,28,02,13,3.60
2022,11,28,02,14,3.60
2022,11,28,02,15,3.60
2022,11,28,02,16,3.50
2022,11,28,02,17,3.50
2022,11,28,02,18,3.50
2022,11,28,02,19,3.50
2022,11,28,02,20,3.50
2022,11,28,02,21,3.50
2022,11,28,02,22,3.50
2022,11,28,02,23,3.50
2022,11,28,02,24,3.50
2022,11,28,02,25,3.50
2022,11,28,02,26,3.50
2022,11,28,02,27,3.50
2022,11,28,02,28,3.50
2022,11,28,02,29,3.50
2022,11,28,02,30,3.50
2022,11,28,02,31,3.50
2022,11,28,02,32,3.60
2022,11,28,02,33,3.60
2022,11,28,02,34,3.60
2022,11,28,02,35,3.60
2022,11,28,02,36,3.60
2022,11,28,02,37,3.60
2022,11,28,02,38,3.60
2022,11,28,02,39,3.60
2022,11,28,02,40,3.60
2022,11,28,02,41,3.70
2022,11,28,02,42,3.70
2022,11,28,02,43,3.70
2022,11,28,02,44,3.70
2022,11,28,02,45,3.70
2022,11,28,02,46,3.70
2022,11,28,02,47,3.70
2022,11,28,02,48,3.70
2022,11,28,02,49,3.70
2022,11,28,02,50,3.80
2022,11,28,02,51,3.80
2022,11,28,02,52,3.80
2022,11,28,02,53,3.80
2022,11,28,02,54,3.80
2022,11,28,02,55,3.80
2022,11,28,02,56,3.70
2022,11,28,02,57,3.70
2022,11,28,02,58,3.70
2022,11,28,02,59,3.70
2022,11,28,03,00,3.70
2022,11,28,03,01,3.70
2022,11,28,03,02,3.70
2022,11,28,03,03,3.70
2022,11,28,03,04,3.70
2022,11,28,03,05,3.60
2022,11,28,03,06,3.60
2022,11,28,03,07,3.60
2022,11,28,03,08,3.60
2022,11,28,03,09,3.60
2022,11,28,03,10,3.60
2022,11,28,03,11,3.60
2022,11,28,03,12,3.60
2022,11,28,03,13,3.60
2022,11,28,03,14,3.60
2022,11,28,03,15,3.60
2022,11,28,03,16,3.60
2022,11,28,03,17,3.60
2022,11,28,03,18,3.60
2022,11,28,03,19,3.60
2022,11,28,03,20,3.60
2022,11,28,03,21,3.60
2022,11,28,03,22,3.60
2022,11,28,03,23,3.60
2022,11,28,03,24,3.60
2022,11,28,03,25,3.60
2022,11,28,03,26,3.60
2022,11,28,03,27,3.60
2022,11,28,03,28,3.60
2022,11,28,03,29,3.60
2022,11,28,03,30,3.60
2022,11,28,03,31,3.60
2022,11,28,03,32,3.60
2022,11,28,03,33,3.60
2022,11,28,03,34,3.60
2022,11,28,03,35,3.60
2022,11,28,03,36,3.60
2022,11,28,03,37,3.60
2022,11,28,03,38,3.60
2022,11,28,03,39,3.50
2022,11,28,03,40,3.50
2022,11,28,03,41,3.50
2022,11,28,03,42,3.50
2022,11,28,03,43,3.50
2022,11,28,03,44,3.50
2022,11,28,03,45,3.50
2022,11,28,03,46,3.50
2022,11,28,03,47,3.50
2022,11,28,03,48,3.50
2022,11,28,03,49,3.50
2022,11,28,03,50,3.50
2022,11,28,03,51,3.50
2022,11,28,03,52,3.50
2022,11,28,03,53,3.50
2022,11,28,03,54,3.50
2022,11,28,03,55,3.50
2022,11,28,03,56,3.50
2022,11,28,03,57,3.50
2022,11,28,03,58,3.50
2022,11,28,03,59,3.50
2022,11,28,04,00,3.50
2022,11,28,04,01,3.50
2022,11,28,04,02,3.40
2022,11,28,04,03,3.40
2022,11,28,04,04,3.50
2022,11,28,04,05,3.50
2022,11,28,04,06,3.50
2022,11,28,04,07,3.50
2022,11,28,04,08,3.50
2022,11,28,04,09,3.50
2022,11,28,04,10,3.50
2022,11,28,04,11,3.50
2022,11,28,04,12,3.50
2022,11,28,04,13,3.40
2022,11,28,04,14,3.40
2022,11,28,04,15,3.40
2022,11,28,04,16,3.40
2022,11,28,04,17,3.40
2022,11,28,04,18,3.40
2022,11,28,04,19,3.40
2022,11,28,04,20,3.40
2022,11,28,04,21,3.40
2022,11,28,04,22,3.40
2022,11,28,04,23,3.40
2022,11,28,04,24,3.40
2022,11,28,04,25,3.40
2022,11,28,04,26,3.40
2022,11,28,04,27,3.40
2022,11,28,04,28,3.40
2022,11,28,04,29,3.40
2022,11,28,04,30,3.40
2022,11,28,04,31,3.40
2022,11,28,04,32,3.50
2022,11,28,04,33,3.50
2022,11,28,04,34,3.50
2022,11,28,04,35,3.50
2022,11,28,04,36,3.50
2022,11,28,04,37,3.50
2022,11,28,04,38,3.50
2022,11,28,04,39,3.60
2022,11,28,04,40,3.60
2022,11,28,04,41,3.60
2022,11,28,04,42,3.60
2022,11,28,04,43,3.70
2022,11,28,04,44,3.70
2022,11,28,04,45,3.70
2022,11,28,04,46,3.70
2022,11,28,04,47,3.70
2022,11,28,04,48,3.70
2022,11,28,04,49,3.70
2022,11,28,04,50,3.70
2022,11,28,04,51,3.80
2022,11,28,04,52,3.80
2022,11,28,04,53,3.80
2022,11,28,04,54,3.80
2022,11,28,04,55,3.80
2022,11,28,04,56,3.80
2022,11,28,04,57,3.80
2022,11,28,04,58,3.90
2022,11,28,04,59,3.90
2022,11,28,05,00,3.90
2022,11,28,05,01,3.90
2022,11,28,05,02,3.90
2022,11,28,05,03,3.90
2022,11,28,05,04,3.90
2022,11,28,05,05,3.90
2022,11,28,05,06,3.90
2022,11,28,05,07,3.90
2022,11,28,05,08,3.90
2022,11,28,05,09,3.90
2022,11,28,05,10,3.90
2022,11,28,05,11,3.90
2022,11,28,05,12,3.90
2022,11,28,05,13,3.90
2022,11,28,05,14,3.90
2022,11,28,05,15,3.90
2022,11,28,05,16,3.90
2022,11,28,05,17,3.90
2022,11,28,05,18,3.90
2022,11,28,05,19,3.90
2022,11,28,05,20,3.90
2022,11,28,05,21,3.90
2022,11,28,05,22,3.90
2022,11,28,05,23,3.90
2022,11,28,05,24,3.90
2022,11,28,05,25,3.90
2022,11,28,05,26,3.90
2022,11,28,05,27,3.80
2022,11,28,05,28,3.80
2022,11,28,05,29,3.80
2022,11,28,05,30,3.80
2022,11,28,05,31,3.80
2022,11,28,05,32,3.80
2022,11,28,05,33,3.80
2022,11,28,05,34,3.80
2022,11,28,05,35,3.80
2022,11,28,05,36,3.80
2022,11,28,05,37,3.80
2022,11,28,05,38,3.80
2022,11,28,05,39,3.80
2022,11,28,05,40,3.80
2022,11,28,05,41,3.70
2022,11,28,05,42,3.70
2022,11,28,05,43,3.70
2022,11,28,05,44,3.70
2022,11,28,05,45,3.70
2022,11,28,05,46,3.70
2022,11,28,05,47,3.70
2022,11,28,05,48,3.60
2022,11,28,05,49,3.60
2022,11,28,05,50,3.60
2022,11,28,05,51,3.60
2022,11,28,05,52,3.60
2022,11,28,05,53,3.60
2022,11,28,05,54,3.60
2022,11,28,05,55,3.60
2022,11,28,05,56,3.60
2022,11,28,05,57,3.60
2022,11,28,05,58,3.60
2022,11,28,05,59,3.60
2022,11,28,06,00,3.60
2022,11,28,06,01,3.60
2022,11,28,06,02,3.60
2022,11,28,06,03,3.60
2022,11,28,06,04,3.60
2022,11,28,06,05,3.60
2022,11,28,06,06,3.60
2022,11,28,06,07,3.60
2022,11,28,06,08,3.60
2022,11,28,06,09,3.50
2022,11,28,06,10,3.50
2022,11,28,06,11,3.50
2022,11,28,06,12,3.50
2022,11,28,06,13,3.50
2022,11,28,06,14,3.50
2022,11,28,06,15,3.50
2022,11,28,06,16,3.50
2022,11,28,06,17,3.50
2022,11,28,06,18,3.50
2022,11,28,06,19,3.50
2022,11,28,06,20,3.50
2022,11,28,06,21,3.50
2022,11,28,06,22,3.40
2022,11,28,06,23,3.40
2022,11,28,06,24,3.40
2022,11,28,06,25,3.40
2022,11,28,06,26,3.40
2022,11,28,06,27,3.40
2022,11,28,06,28,3.40
2022,11,28,06,29,3.40
2022,11,28,06,30,3.40
2022,11,28,06,31,3.40
2022,11,28,06,32,3.40
2022,11,28,06,33,3.40
2022,11,28,06,34,3.30
2022,11,28,06,35,3.30
2022,11,28,06,36,3.30
2022,11,28,06,37,3.30
2022,11,28,06,38,3.30
2022,11,28,06,39,3.30
2022,11,28,06,40,3.30
2022,11,28,06,41,3.30
2022,11,28,06,42,3.30
2022,11,28,06,43,3.30
2022,11,28,06,44,3.30
2022,11,28,06,45,3.30
2022,11,28,06,46,3.30
2022,11,28,06,47,3.30
2022,11,28,06,48,3.30
2022,11,28,09,38,2.40
2022,11,28,09,39,2.40
2022,11,28,09,40,2.30
2022,11,28,09,41,2.30
2022,11,28,09,42,2.30
2022,11,28,09,43,2.30
2022,11,28,09,44,2.30
2022,11,28,09,45,2.30
2022,11,28,09,46,2.20
2022,11,28,09,47,2.30
2022,11,28,09,48,2.20
2022,11,28,09,49,2.20
2022,11,28,09,50,2.20
2022,11,28,09,51,2.30
2022,11,28,09,52,2.30
2022,11,28,09,53,2.30
2022,11,28,09,54,2.30
2022,11,28,09,55,2.30
2022,11,28,09,56,2.30
2022,11,28,09,57,2.20
2022,11,28,09,58,2.20
2022,11,28,09,59,2.20
2022,11,28,10,00,2.20
2022,11,28,10,01,2.20
2022,11,28,10,02,2.20
2022,11,28,10,03,2.20
2022,11,28,10,04,2.30
2022,11,28,10,05,2.30
2022,11,28,10,06,2.30
2022,11,28,10,07,2.30
2022,11,28,10,08,2.30
2022,11,28,10,09,2.30
2022,11,28,10,10,2.30
2022,11,28,10,11,2.30
2022,11,28,10,12,2.30
2022,11,28,10,13,2.40
2022,11,28,10,14,2.40
2022,11,28,10,15,2.30
2022,11,28,10,16,2.30
2022,11,28,10,17,2.30
2022,11,28,10,18,2.30
2022,11,28,10,19,2.30
2022,11,28,10,20,2.30
2022,11,28,10,21,2.30
2022,11,28,10,22,2.30
2022,11,28,10,23,2.30
2022,11,28,10,24,2.30
2022,11,28,10,25,2.40
2022,11,28,10,26,2.40
2022,11,28,10,27,2.40
2022,11,28,10,28,2.40
2022,11,28,10,29,2.50
2022,11,28,10,30,2.50
2022,11,28,10,31,2.60
2022,11,28,10,32,2.60
2022,11,28,10,33,2.70
2022,11,28,10,34,2.70
2022,11,28,10,35,2.80
2022,11,28,10,36,2.80
2022,11,28,10,37,2.80
2022,11,28,10,38,2.80
2022,11,28,10,39,2.80
2022,11,28,10,40,2.80
2022,11,28,10,41,2.80
2022,11,28,10,42,2.90
2022,11,28,10,43,2.90
2022,11,28,10,44,2.90
2022,11,28,10,45,3.00
2022,11,28,10,46,3.00
2022,11,28,10,47,3.00
2022,11,28,10,48,3.00
2022,11,28,10,49,3.00
2022,11,28,10,50,3.00
2022,11,28,10,51,3.10
2022,11,28,10,52,3.10
2022,11,28,10,53,3.10
2022,11,28,10,54,3.10
2022,11,28,10,55,3.10
2022,11,28,10,56,3.10
2022,11,28,10,57,3.20
2022,11,28,10,58,3.20
2022,11,28,10,59,3.20
2022,11,28,11,00,3.20
2022,11,28,11,01,3.30
2022,11,28,11,02,3.30
2022,11,28,11,03,3.30
2022,11,28,11,04,3.30
2022,11,28,11,05,3.40
2022,11,28,11,06,3.40
2022,11,28,11,07,3.40
2022,11,28,11,08,3.50
2022,11,28,11,09,3.50
2022,11,28,11,10,3.60
2022,11,28,11,11,3.70
2022,11,28,11,12,3.70
2022,11,28,11,13,3.70
2022,11,28,11,14,3.70
2022,11,28,11,15,3.80
2022,11,28,11,16,3.80
2022,11,28,11,17,3.80
2022,11,28,11,18,3.90
2022,11,28,11,19,3.90
2022,11,28,11,20,3.90
2022,11,28,11,21,3.90
2022,11,28,11,22,3.90
2022,11,28,11,23,3.90
2022,11,28,11,24,3.90
2022,11,28,11,25,3.90
2022,11,28,11,26,4.00
2022,11,28,11,27,4.00
2022,11,28,11,28,4.00
2022,11,28,11,29,4.00
2022,11,28,11,30,4.00
2022,11,28,11,31,4.00
2022,11,28,11,32,4.00
2022,11,28,11,33,4.00
2022,11,28,11,34,4.10
2022,11,28,11,35,4.00
2022,11,28,11,36,4.00
2022,11,28,11,37,4.00
2022,11,28,11,38,3.90
2022,11,28,11,39,3.90
2022,11,28,11,40,3.90
2022,11,28,11,41,3.90
2022,11,28,11,42,3.90
2022,11,28,11,43,3.90
2022,11,28,11,44,3.90
2022,11,28,11,45,3.90
2022,11,28,11,46,3.80
2022,11,28,11,47,3.80
2022,11,28,11,48,3.90
2022,11,28,11,49,3.90
2022,11,28,11,50,3.90
2022,11,28,11,51,3.90
2022,11,28,11,52,3.90
2022,11,28,11,53,3.90
2022,11,28,11,54,3.90
2022,11,28,11,55,3.90
2022,11,28,11,56,4.00
2022,11,28,11,57,4.00
2022,11,28,11,58,4.10
2022,11,28,11,59,4.10
2022,11,28,12,00,4.10
2022,11,28,12,01,4.20
2022,11,28,12,02,4.20
2022,11,28,12,03,4.20
2022,11,28,12,04,4.10
2022,11,28,12,05,4.10
2022,11,28,12,06,4.10
2022,11,28,12,07,4.10
2022,11,28,12,08,4.10
2022,11,28,12,09,4.10
2022,11,28,12,10,4.10
2022,11,28,12,11,4.10
2022,11,28,12,12,4.10
2022,11,28,12,13,4.10
2022,11,28,12,14,4.10
2022,11,28,12,15,4.00
2022,11,28,12,16,4.00
2022,11,28,12,17,4.00
2022,11,28,12,18,4.00
2022,11,28,12,19,4.00
2022,11,28,12,20,4.00
2022,11,28,12,21,4.00
2022,11,28,12,22,4.00
2022,11,28,12,23,4.00
2022,11,28,12,24,3.90
2022,11,28,12,25,3.90
2022,11,28,12,26,3.90
2022,11,28,12,27,3.90
2022,11,28,12,28,4.00
2022,11,28,12,29,4.00
2022,11,28,12,30,4.00
2022,11,28,12,31,4.10
2022,11,28,12,32,4.00
2022,11,28,12,33,4.00
2022,11,28,12,34,4.10
2022,11,28,12,35,4.10
2022,11,28,12,36,4.10
2022,11,28,12,37,4.10
2022,11,28,12,38,4.10
2022,11,28,12,39,4.10
2022,11,28,12,40,4.10
2022,11,28,12,41,4.10
2022,11,28,12,42,4.00
2022,11,28,12,43,4.00
2022,11,28,12,44,4.00
2022,11,28,12,45,4.00
2022,11,28,12,46,4.10
2022,11,28,12,47,4.10
2022,11,28,12,48,4.10
2022,11,28,12,49,4.10
2022,11,28,12,50,4.10
2022,11,28,12,51,4.10
2022,11,28,12,52,4.10
2022,11,28,12,53,4.10
2022,11,28,12,54,4.10
2022,11,28,12,55,4.00
2022,11,28,12,56,3.90
2022,11,28,12,57,3.90
2022,11,28,12,58,3.80
2022,11,28,12,59,3.80
2022,11,28,13,00,3.80
2022,11,28,13,01,3.80
2022,11,28,13,02,3.80
2022,11,28,13,03,3.80
2022,11,28,13,04,3.70
2022,11,28,13,05,3.70
2022,11,28,13,06,3.70
2022,11,28,13,07,3.70
2022,11,28,13,08,3.70
2022,11,28,13,09,3.70
2022,11,28,13,10,3.70
2022,11,28,13,11,3.70
2022,11,28,13,12,3.70
2022,11,28,13,13,3.70
2022,11,28,13,14,3.70
2022,11,28,13,15,3.70
2022,11,28,13,16,3.70
2022,11,28,13,17,3.70
2022,11,28,13,18,3.70
2022,11,28,13,19,3.70
2022,11,28,13,20,3.70
2022,11,28,13,21,3.70
2022,11,28,13,22,3.70
2022,11,28,13,23,3.70
2022,11,28,13,24,3.70
2022,11,28,13,25,3.70
2022,11,28,13,26,3.70
2022,11,28,13,27,3.70
2022,11,28,13,28,3.60
2022,11,28,13,29,3.60
2022,11,28,13,30,3.60
2022,11,28,13,31,3.60
2022,11,28,13,32,3.60
2022,11,28,13,33,3.60
2022,11,28,13,34,3.60
2022,11,28,13,35,3.60
2022,11,28,13,36,3.60
2022,11,28,13,37,3.60
2022,11,28,13,38,3.60
2022,11,28,13,39,3.60
2022,11,28,13,40,3.60
2022,11,28,13,41,3.60
2022,11,28,13,42,3.60
2022,11,28,13,43,3.60
2022,11,28,13,44,3.60
2022,11,28,13,45,3.60
2022,11,28,13,46,3.60
2022,11,28,13,47,3.60
2022,11,28,13,48,3.60
2022,11,28,13,49,3.60
2022,11,28,13,50,3.60
2022,11,28,13,51,3.60
2022,11,28,13,52,3.60
2022,11,28,13,53,3.60
2022,11,28,13,54,3.60
2022,11,28,13,55,3.60
2022,11,28,13,56,3.60
2022,11,28,13,57,3.60
2022,11,28,13,58,3.60
2022,11,28,13,59,3.60
2022,11,28,14,00,3.60
2022,11,28,14,01,3.60
2022,11,28,14,02,3.60
2022,11,28,14,03,3.60
2022,11,28,14,04,3.60
2022,11,28,14,05,3.60
2022,11,28,14,06,3.60
2022,11,28,14,07,3.70
2022,11,28,14,08,3.70
2022,11,28,14,09,3.60
2022,11,28,14,10,3.60
2022,11,28,14,11,3.70
2022,11,28,14,12,3.60
2022,11,28,14,13,3.70
2022,11,28,14,14,3.70
2022,11,28,14,15,3.60
2022,11,28,14,16,3.60
2022,11,28,14,17,3.70
2022,11,28,14,18,3.70
2022,11,28,14,19,3.70
2022,11,28,14,20,3.60
2022,11,28,14,21,3.70
2022,11,28,14,22,3.70
2022,11,28,14,23,3.60
2022,11,28,14,24,3.60
2022,11,28,14,25,3.60
2022,11,28,14,26,3.60
2022,11,28,14,27,3.60
2022,11,28,14,28,3.60
2022,11,28,14,29,3.60
2022,11,28,14,30,3.60
2022,11,28,14,31,3.60
2022,11,28,14,32,3.60
2022,11,28,14,33,3.60
2022,11,28,14,34,3.60
2022,11,28,14,35,3.60
2022,11,28,14,36,3.60
2022,11,28,14,37,3.60
2022,11,28,14,38,3.60
2022,11,28,14,39,3.60
2022,11,28,14,40,3.60
2022,11,28,14,41,3.60
2022,11,28,14,42,3.60
2022,11,28,14,43,3.60
2022,11,28,14,44,3.70
2022,11,28,14,45,3.70
2022,11,28,14,46,3.70
2022,11,28,14,47,3.70
2022,11,28,14,48,3.60
2022,11,28,14,49,3.60
2022,11,28,14,50,3.60
2022,11,28,14,51,3.60
2022,11,28,14,52,3.60
2022,11,28,14,53,3.60
2022,11,28,14,54,3.60
2022,11,28,14,55,3.60
2022,11,28,14,56,3.60
2022,11,28,14,57,3.60
2022,11,28,14,58,3.60
2022,11,28,14,59,3.60
2022,11,28,15,00,3.60
2022,11,28,15,01,3.60
2022,11,28,15,02,3.60
2022,11,28,15,03,3.60
2022,11,28,15,04,3.60
2022,11,28,15,05,3.60
2022,11,28,15,06,3.60
2022,11,28,15,07,3.60
2022,11,28,15,08,3.60
2022,11,28,15,09,3.60
2022,11,28,15,10,3.60
2022,11,28,15,11,3.60
2022,11,28,15,12,3.60
2022,11,28,15,13,3.60
2022,11,28,15,14,3.60
2022,11,28,15,15,3.60
2022,11,28,15,16,3.60
2022,11,28,15,17,3.60
2022,11,28,15,18,3.60
2022,11,28,15,19,3.60
2022,11,28,15,20,3.60
2022,11,28,15,21,3.50
2022,11,28,15,22,3.50
2022,11,28,15,23,3.50
2022,11,28,15,24,3.50
2022,11,28,15,25,3.50
2022,11,28,15,26,3.50
2022,11,28,15,27,3.50
2022,11,28,15,28,3.50
2022,11,28,15,29,3.50
2022,11,28,15,30,3.50
2022,11,28,15,31,3.50
2022,11,28,15,32,3.60
2022,11,28,15,33,3.60
2022,11,28,15,34,3.60
2022,11,28,15,35,3.60
2022,11,28,15,36,3.60
2022,11,28,15,37,3.60
2022,11,28,15,38,3.50
2022,11,28,15,39,3.50
2022,11,28,15,40,3.50
2022,11,28,15,41,3.50
2022,11,28,15,42,3.50
2022,11,28,15,43,3.50
2022,11,28,15,44,3.50
2022,11,28,15,45,3.50
2022,11,28,15,46,3.40
2022,11,28,15,47,3.40
2022,11,28,15,48,3.40
2022,11,28,15,49,3.40
2022,11,28,15,50,3.40
2022,11,28,15,51,3.40
2022,11,28,15,52,3.40
2022,11,28,15,53,3.40
2022,11,28,15,54,3.40
2022,11,28,15,55,3.40
2022,11,28,15,56,3.40
2022,11,28,15,57,3.30
2022,11,28,15,58,3.30
2022,11,28,15,59,3.30
2022,11,28,16,00,3.30
2022,11,28,16,01,3.30
2022,11,28,16,02,3.30
2022,11,28,16,03,3.30
2022,11,28,16,04,3.30
2022,11,28,16,05,3.30
2022,11,28,16,06,3.30
2022,11,28,16,07,3.30
2022,11,28,16,08,3.30
2022,11,28,16,09,3.30
2022,11,28,16,10,3.30
2022,11,28,16,11,3.30
2022,11,28,16,12,3.30
2022,11,28,16,13,3.30
2022,11,28,16,14,3.30
2022,11,28,16,15,3.30
2022,11,28,16,16,3.30
2022,11,28,16,17,3.30
2022,11,28,16,18,3.30
2022,11,28,16,19,3.30
2022,11,28,16,20,3.30
2022,11,28,16,21,3.30
2022,11,28,16,22,3.30
2022,11,28,16,23,3.30
2022,11,28,16,24,3.30
2022,11,28,16,25,3.30
2022,11,28,16,26,3.30
2022,11,28,16,27,3.30
2022,11,28,16,28,3.20
2022,11,28,16,29,3.20
2022,11,28,16,30,3.20
2022,11,28,16,31,3.20
2022,11,28,16,32,3.20
2022,11,28,16,33,3.20
2022,11,28,16,34,3.20
2022,11,28,16,35,3.10
2022,11,28,16,36,3.10
2022,11,28,16,37,3.10
2022,11,28,16,38,3.10
2022,11,28,16,39,3.10
2022,11,28,16,40,3.10
2022,11,28,16,41,3.10
2022,11,28,16,42,3.10
2022,11,28,16,43,3.10
2022,11,28,16,44,3.00
2022,11,28,16,45,3.00
2022,11,28,16,46,3.00
2022,11,28,16,47,3.00
2022,11,28,16,48,2.90
2022,11,28,16,49,2.90
2022,11,28,16,50,2.90
2022,11,28,16,51,2.90
2022,11,28,16,52,2.90
2022,11,28,16,53,2.90
2022,11,28,16,54,2.90
2022,11,28,16,55,2.90
2022,11,28,16,56,2.80
2022,11,28,16,57,2.80
2022,11,28,16,58,2.80
2022,11,28,16,59,2.80
2022,11,28,17,00,2.80
2022,11,28,17,01,2.80
2022,11,28,17,02,2.80
2022,11,28,17,03,2.80
2022,11,28,17,04,2.80
2022,11,28,17,05,2.70
2022,11,28,17,06,2.70
2022,11,28,17,07,2.70
2022,11,28,17,08,2.70
2022,11,28,17,09,2.70
2022,11,28,17,10,2.70
2022,11,28,17,11,2.70
2022,11,28,17,12,2.60
2022,11,28,17,13,2.60
2022,11,28,17,14,2.60
2022,11,28,17,15,2.60
2022,11,28,17,16,2.60
2022,11,28,17,17,2.60
2022,11,28,17,18,2.60
2022,11,28,17,19,2.60
2022,11,28,17,20,2.60
2022,11,28,17,21,2.60
2022,11,28,17,22,2.60
2022,11,28,17,23,2.50
2022,11,28,17,24,2.50
2022,11,28,17,25,2.50
2022,11,28,17,26,2.50
2022,11,28,17,27,2.50
2022,11,28,17,28,2.50
2022,11,28,17,29,2.40
2022,11,28,17,30,2.40
2022,11,28,17,31,2.40
2022,11,28,17,32,2.40
2022,11,28,17,33,2.40
2022,11,28,17,34,2.40
2022,11,28,17,35,2.40
2022,11,28,17,36,2.30
2022,11,28,17,37,2.30
2022,11,28,17,38,2.30
2022,11,28,17,39,2.30
2022,11,28,17,40,2.30
2022,11,28,17,41,2.30
2022,11,28,17,42,2.20
2022,11,28,17,43,2.20
2022,11,28,17,44,2.20
2022,11,28,17,45,2.20
2022,11,28,17,46,2.20
2022,11,28,17,47,2.20
2022,11,28,17,48,2.20
2022,11,28,17,49,2.20
2022,11,28,17,50,2.20
2022,11,28,17,51,2.20
2022,11,28,17,52,2.20
2022,11,28,17,53,2.10
2022,11,28,17,54,2.10
2022,11,28,17,55,2.10
2022,11,28,17,56,2.10
2022,11,28,17,57,2.10
2022,11,28,17,58,2.10
2022,11,28,17,59,2.10
2022,11,28,18,00,2.00
2022,11,28,18,01,2.00
2022,11,28,18,02,2.00
2022,11,28,18,03,2.00
2022,11,28,18,04,1.90
2022,11,28,18,05,1.90
2022,11,28,18,06,1.90
2022,11,28,18,07,1.90
2022,11,28,18,08,1.90
2022,11,28,18,09,1.90
2022,11,28,18,10,1.80
2022,11,28,18,11,1.80
2022,11,28,18,12,1.80
2022,11,28,18,13,1.80
2022,11,28,18,14,1.80
2022,11,28,18,15,1.80
2022,11,28,18,16,1.70
2022,11,28,18,17,1.70
2022,11,28,18,18,1.70
2022,11,28,18,19,1.70
2022,11,28,18,20,1.70
2022,11,28,18,21,1.70
2022,11,28,18,22,1.70
2022,11,28,18,23,1.70
2022,11,28,18,24,1.70
2022,11,28,18,25,1.70
2022,11,28,18,26,1.70
2022,11,28,18,27,1.60
2022,11,28,18,28,1.70
2022,11,28,18,29,1.70
2022,11,28,18,30,1.70
2022,11,28,18,31,1.60
2022,11,28,18,32,1.60
2022,11,28,18,33,1.60
2022,11,28,18,34,1.60
2022,11,28,18,35,1.60
2022,11,28,18,36,1.60
2022,11,28,18,37,1.60
2022,11,28,18,38,1.60
2022,11,28,18,39,1.60
2022,11,28,18,40,1.60
2022,11,28,18,41,1.60
2022,11,28,18,42,1.60
2022,11,28,18,43,1.50
2022,11,28,18,44,1.50
2022,11,28,18,45,1.50
2022,11,28,18,46,1.60
2022,11,28,18,47,1.60
2022,11,28,18,48,1.60
2022,11,28,18,49,1.50
2022,11,28,18,50,1.50
2022,11,28,18,51,1.50
2022,11,28,18,52,1.50
2022,11,28,18,53,1.60
2022,11,28,18,54,1.60
2022,11,28,18,55,1.60
2022,11,28,18,56,1.60
2022,11,28,18,57,1.60
2022,11,28,18,58,1.60
2022,11,28,18,59,1.60
2022,11,28,19,00,1.60
2022,11,28,19,01,1.60
2022,11,28,19,02,1.50
2022,11,28,19,03,1.50
2022,11,28,19,04,1.40
2022,11,28,19,05,1.30
2022,11,28,19,06,1.30
2022,11,28,19,07,1.30
2022,11,28,19,08,1.20
2022,11,28,19,09,1.20
2022,11,28,19,10,1.30
2022,11,28,19,11,1.30
2022,11,28,19,12,1.30
2022,11,28,19,13,1.30
2022,11,28,19,14,1.30
2022,11,28,19,15,1.30
2022,11,28,19,16,1.30
2022,11,28,19,17,1.30
2022,11,28,19,18,1.30
2022,11,28,19,19,1.30
2022,11,28,19,20,1.20
2022,11,28,19,21,1.20
2022,11,28,19,22,1.20
2022,11,28,19,23,1.20
2022,11,28,19,24,1.20
2022,11,28,19,25,1.20
2022,11,28,19,26,1.20
2022,11,28,19,27,1.20
2022,11,28,19,28,1.20
2022,11,28,19,29,1.20
2022,11,28,19,30,1.20
2022,11,28,19,31,1.10
2022,11,28,19,32,1.10
2022,11,28,19,33,1.10
2022,11,28,19,34,1.10
2022,11,28,19,35,1.10
2022,11,28,19,36,1.10
2022,11,28,19,37,1.00
2022,11,28,19,38,1.00
2022,11,28,19,39,1.00
2022,11,28,19,40,0.90
2022,11,28,19,41,0.90
2022,11,28,19,42,0.90
2022,11,28,19,43,0.90
2022,11,28,19,44,0.90
2022,11,28,19,45,0.90
2022,11,28,19,46,0.90
2022,11,28,19,47,0.80
2022,11,28,19,48,0.80
2022,11,28,19,49,0.80
2022,11,28,19,50,0.80
2022,11,28,19,51,0.80
2022,11,28,19,52,0.80
2022,11,28,19,53,0.80
2022,11,28,19,54,0.80
2022,11,28,19,55,0.80
2022,11,28,19,56,0.80
2022,11,28,19,57,0.80
2022,11,28,19,58,0.80
2022,11,28,19,59,0.80
2022,11,28,20,00,0.80
2022,11,28,20,01,0.80
2022,11,28,20,02,0.80
2022,11,28,20,03,0.80
2022,11,28,20,04,0.80
2022,11,28,20,05,0.80
2022,11,28,20,06,0.80
2022,11,28,20,07,0.80
2022,11,28,20,08,0.80
2022,11,28,20,09,0.80
2022,11,28,20,10,0.80
2022,11,28,20,11,0.80
2022,11,28,20,12,0.90
2022,11,28,20,13,0.90
2022,11,28,20,14,0.90
2022,11,28,20,15,0.90
2022,11,28,20,16,0.90
2022,11,28,20,17,0.90
2022,11,28,20,18,0.90
2022,11,28,20,19,0.90
2022,11,28,20,20,0.90
2022,11,28,20,21,1.00
2022,11,28,20,22,1.00
2022,11,28,20,23,1.00
2022,11,28,20,24,1.00
2022,11,28,20,25,1.00
2022,11,28,20,26,1.00
2022,11,28,20,27,1.00
2022,11,28,20,28,0.90
2022,11,28,20,29,0.90
2022,11,28,20,30,0.90
2022,11,28,20,31,0.90
2022,11,28,20,32,0.90
2022,11,28,20,33,0.90
2022,11,28,20,34,0.90
2022,11,28,20,35,0.90
2022,11,28,20,36,0.90
2022,11,28,20,37,0.90
2022,11,28,20,38,0.90
2022,11,28,20,39,0.90
2022,11,28,20,40,0.90
2022,11,28,20,41,0.80
2022,11,28,20,42,0.80
2022,11,28,20,43,0.80
2022,11,28,20,44,0.80
2022,11,28,20,45,0.80
2022,11,28,20,46,0.80
2022,11,28,20,47,0.80
2022,11,28,20,48,0.80
2022,11,28,20,49,0.80
2022,11,28,20,50,0.80
2022,11,28,20,51,0.80
2022,11,28,20,52,0.80
2022,11,28,20,53,0.80
2022,11,28,20,54,0.80
2022,11,28,20,55,0.80